Regional Weather Roundup
Issued by NWS Albany, NY

Home | Current Version | Previous Version | Text Only | Print | Product List | Glossary On
Versions: 1 2 3 4 5 6 7 8 9 10 11 12 13 14 15 16 17 18 19 20 21 22 23 24 25 26 27 28 29 30 31 32 33 34 35 36 37 38 39 40 41 42 43 44 45 46 47 48 49 50
000
ASUS41 KALY 292110
RWRALY

NEW YORK STATE HOURLY WEATHER ROUNDUP
NATIONAL WEATHER SERVICE ALBANY NY
500 PM EDT WED JUL 29 2015

NOTE: "FAIR" INDICATES FEW OR NO CLOUDS BELOW 12,000 FEET WITH NO
SIGNIFICANT WEATHER AND/OR NO OBSTRUCTIONS TO VISIBILITY.

NYZ032-033-038>043-046>054-057>066-NYZ062>081-292200-
EAST


CITY           SKY/WX    TMP DP  RH WIND       PRES   REMARKS
ALBANY         PTSUNNY   92  65  40 S12       29.90F HX  94
GLENS FALLS    SUNNY     90  63  40 S12       29.89F HX  91
POUGHKEEPSIE   SUNNY     95  58  28 W6        29.90F HX  94
NEWBURGH       MOSUNNY   91  63  38 W12       29.94F HX  92
MONTGOMERY     MOSUNNY   92  65  40 W8        29.93F HX  94
WHITE PLAINS   MOSUNNY   90  63  40 VRB7      29.93F HX  91
ISLIP          PTSUNNY   89  64  43 SW15      29.92F HX  90
NEW YORK CITY  PTSUNNY   92  63  38 S14G20    29.91S HX  93
CENTRAL PARK   MOSUNNY   90  63  40 VRB6      29.95S HX  91
$$

NYZ005>009-017-018-044>046-055-056-292200-
CENTRAL


CITY           SKY/WX    TMP DP  RH WIND       PRES   REMARKS
FULTON         MOSUNNY   91  66  43 SW5       29.90F HX  93
SYRACUSE       MOSUNNY   90  64  42 SW8       29.89F HX  91
ROME           MOSUNNY   89  66  46 S5        29.91F HX  91
ELMIRA         MOSUNNY   88  64  44 SW10      29.92F
BINGHAMTON     MOSUNNY   84  63  49 W8        29.98F
MONTICELLO     MOSUNNY   86  64  48 S8        30.00F
$$

NYZ026>034-041>043-292200-
NORTH


CITY           SKY/WX    TMP DP  RH WIND       PRES   REMARKS
WATERTOWN      SUNNY     86  66  51 W8        29.90F
FORT DRUM      NOT AVBL
MASSENA        SUNNY     89  65  44 SW9       29.87F HX  91
SARANAC LAKE   MOSUNNY   85  63  47 VRB6      29.95F
PLATTSBURGH    HVY RAIN  78  72  81 SE12      29.88S
$$

NYZ001>004-010>016-019>021-292200-
WEST


CITY           SKY/WX    TMP DP  RH WIND       PRES   REMARKS
NIAGARA FALLS  PTSUNNY   87  60  40 W10       29.88F
BUFFALO        PTSUNNY   88  58  36 SW8       29.89F
DUNKIRK        SUNNY     86  66  51 N6        29.90F
JAMESTOWN      MOSUNNY   84  64  51 S9        29.97S
WELLSVILLE     MOSUNNY   85  56  37 SW5       30.01F
ROCHESTER      PTSUNNY   90  62  39 S10       29.89F HX  90
PENN YAN       SUNNY     88  63  43 VRB6      29.94F
$$

             KEY
       WCI = WIND CHILL INDEX
       VSB = VISIBILITY
       HX  = HEAT INDEX
$$



USA.gov is the U.S. government's official web portal to all federal, state and local government web resources and services.